Location: Prague
(50.0830°N, 14.4670°E)
Time: 11:50:27
(UTC+01:00)

Envisat - Visible Passes

Search period start: 29 November 2022 00:00
Search period end: 09 December 2022 00:00
Orbit: 763 x 765 km, 98.2° (Epoch: 29 November)

Date Brightness Start Highest point End Pass type
(mag) Time Alt. Az. Time Alt. Az. Time Alt. Az.
29 Nov 5.9 02:52:48 10° NE 02:53:21 11° ENE 02:53:21 11° ENE visible
29 Nov 3.7 04:30:01 10° NNE 04:33:31 45° NNE 04:33:31 45° NNE visible
29 Nov 4.4 06:10:16 10° NNW 06:13:29 17° NW 06:13:41 17° WNW visible
30 Nov 4.7 03:53:10 10° NNE 03:55:53 28° NE 03:55:53 28° NE visible
30 Nov 3.9 05:32:30 10° N 05:36:04 29° NW 05:36:04 29° NW visible
30 Nov 5.9 16:54:11 10° WSW 16:56:52 14° W 16:59:34 10° NW visible
01 Dec 5.6 03:16:48 10° NE 03:18:16 16° NE 03:18:16 16° NE visible
01 Dec 3.7 04:55:09 10° N 04:58:26 38° N 04:58:26 38° N visible
01 Dec 4.8 06:36:33 10° NNW 06:38:08 11° NW 06:38:36 11° NW visible
02 Dec 4.3 04:18:05 10° NNE 04:20:50 32° NNE 04:20:50 32° NNE visible
02 Dec 4.3 05:58:00 10° N 06:01:00 20° NW 06:01:00 20° NW visible
03 Dec 5.2 03:41:22 10° NNE 03:43:14 21° NE 03:43:14 21° NE visible
03 Dec 4.0 05:20:24 10° N 05:23:24 29° NNW 05:23:24 29° NNW visible
03 Dec 5.8 16:41:22 10° SW 16:44:46 18° W 16:48:10 10° NW visible
04 Dec 5.9 03:05:13 10° NE 03:05:37 11° NE 03:05:37 11° NE visible
04 Dec 4.2 04:43:08 10° N 04:45:48 31° N 04:45:48 31° N visible
04 Dec 4.7 06:23:53 10° NNW 06:25:58 14° NW 06:25:58 14° NW visible
05 Dec 4.8 04:06:11 10° NNE 04:08:13 24° NNE 04:08:13 24° NNE visible
05 Dec 4.3 05:45:48 10° N 05:48:22 21° NW 05:48:22 21° NW visible
05 Dec 6.2 17:09:06 10° W 17:10:10 11° W 17:11:15 10° WNW visible
06 Dec 5.6 03:29:35 10° NNE 03:30:38 15° NE 03:30:38 15° NE visible
06 Dec 4.2 05:08:20 10° N 05:10:48 27° NNW 05:10:48 27° NNW visible
07 Dec 4.6 04:31:10 10° NNE 04:33:14 25° NNE 04:33:14 25° NNE visible
07 Dec 4.6 06:11:28 10° NNW 06:13:24 15° NW 06:13:24 15° NW visible
08 Dec 5.2 03:54:18 10° NNE 03:55:39 18° NNE 03:55:39 18° NNE visible
08 Dec 4.4 05:33:39 10° N 05:35:50 21° NNW 05:35:50 21° NNW visible
08 Dec 5.9 16:55:31 10° WSW 16:58:02 14° W 17:00:33 10° NW visible
